GFSMW_925_temp_231.txt.gz
Temp
26 26 24 22 22 21 19 19 18 18 17 17 16 16 17 18 18 19 20 19 19 20 19 20 20 20 19 19 18 18 17 16 17 16 17 18 19 18 18 17 17 17 16
24 24 23 21 21 21 20 19 19 18 17 18 17 18 17 17 17 19 19 19 19 19 19 19 19 19 18 17 17 17 17 16 16 16 15 16 18 18 17 17 17 17 16
25 24 24 21 20 21 20 20 19 18 17 17 17 17 17 16 16 17 18 18 18 19 19 18 18 17 17 17 17 16 16 15 15 15 15 15 18 16 16 16 16 15 15
24 24 24 22 20 20 20 20 19 19 18 17 17 17 19 17 17 17 17 17 17 17 17 17 17 17 16 16 15 15 15 15 14 14 14 13 13 15 16 16 16 15 14
23 23 23 23 21 20 19 19 19 18 18 17 18 18 19 18 16 17 17 17 17 16 16 16 16 16 15 14 14 14 14 13 14 13 12 13 13 14 14 14 15 15 14
22 22 22 22 21 19 18 18 18 18 17 17 17 18 18 16 16 16 16 15 15 15 15 15 15 14 14 14 14 14 13 12 12 12 11 11 11 13 12 13 12 12 13
22 22 21 19 19 18 18 18 17 17 17 17 17 17 17 18 16 15 15 13 14 14 14 14 14 13 13 13 12 12 12 11 11 10 9 9 9 8 9 9 10 10 10
21 21 21 20 18 17 16 16 17 17 16 16 16 15 17 17 17 16 15 14 13 13 13 13 13 12 12 12 11 11 11 10 9 8 7 7 6 6 5 6 7 8 10
20 20 20 19 18 16 15 16 15 15 15 15 16 17 17 17 16 15 15 14 14 13 12 12 12 11 11 10 10 9 8 8 7 6 6 5 4 4 4 4 5 6 8
20 18 17 17 16 16 15 15 14 14 14 15 16 16 15 16 15 14 14 13 13 12 12 11 10 10 9 9 9 8 7 6 5 4 4 3 3 3 2 2 2 3 3
19 17 16 16 15 14 14 14 13 13 13 14 14 15 14 14 14 14 13 13 12 11 11 10 9 9 8 7 7 6 4 4 2 2 2 2 1 1 1 1 1 1 1
19 17 16 15 14 13 14 13 13 13 13 13 14 14 14 14 14 13 13 13 11 10 10 9 8 7 7 6 5 3 2 2 1 0 0 -0 0 -0 -0 -0 0 0 0
16 15 14 14 14 14 13 12 12 12 12 12 12 12 11 11 11 11 11 11 9 9 8 8 7 6 5 4 3 2 1 0 -0 -1 -1 -1 -1 -1 -1 -0 0 -0 -0
15 15 14 14 14 13 13 12 12 12 12 12 11 10 10 12 11 11 10 9 9 8 7 7 6 5 4 3 2 0 -0 -1 -1 -2 -2 -2 -2 -2 -2 -1 -1 -1 -2
14 15 14 14 14 13 12 12 11 11 11 11 11 10 10 10 10 9 9 8 8 7 7 6 4 4 3 2 0 -1 -1 -1 -2 -2 -2 -2 -3 -3 -3 -3 -3 -2 -2
15 14 14 14 14 13 13 12 11 11 11 10 9 9 9 10 9 8 7 7 6 6 5 4 4 3 2 1 -0 -1 -1 -2 -2 -2 -3 -3 -3 -3 -3 -4 -4 -3 -2
15 14 14 14 14 13 13 12 11 10 10 10 8 8 8 7 7 7 5 5 5 4 4 4 3 3 2 1 -1 -2 -2 -2 -2 -3 -3 -3 -4 -4 -4 -2 -2 -3 -3
15 14 14 14 14 13 13 11 11 10 10 9 8 7 7 6 5 5 4 4 5 4 3 3 3 2 1 -0 -1 -2 -2 -2 -3 -3 -4 -4 -4 -4 -3 -2 -2 -2 -3
16 15 15 14 13 13 12 11 10 10 9 8 7 6 7 6 5 4 4 4 3 2 4 3 3 2 1 -0 -1 -1 -2 -2 -2 -3 -3 -3 -3 -2 -2 -2 -3 -3 -3
18 16 15 14 13 13 11 11 11 10 9 7 6 6 8 6 5 5 4 3 4 4 4 3 3 2 1 1 1 -0 -1 -2 -2 -3 -3 -2 -3 -2 -2 -4 -4 -3 -3
17 16 15 15 13 12 11 11 11 10 9 7 7 7 6 6 6 5 4 5 4 4 3 3 2 2 1 -0 -1 -1 -1 -1 -2 -2 -3 -2 -3 -3 -3 -3 -4 -3 -3
17 15 15 15 13 12 12 12 11 10 7 7 6 5 6 6 5 5 5 5 4 1 1 0 1 0 1 1 -0 -1 -1 -1 -1 -2 -2 -2 -3 -3 -3 -3 -3 -3 -3
17 16 16 15 13 12 13 12 11 7 7 6 5 5 6 6 5 5 3 2 1 0 -0 -0 -0 -0 0 0 0 -1 -1 -1 -1 -2 -2 -3 -3 -3 -3 -3 -3 -3 -4
17 16 16 14 13 12 13 12 8 7 7 6 5 4 4 4 4 4 2 1 1 1 0 0 0 0 0 0 -0 -1 -2 -2 -2 -2 -3 -3 -3 -3 -4 -4 -4 -4 -4
17 16 15 13 12 12 12 10 7 7 6 5 4 4 3 3 2 2 2 1 2 2 1 1 1 1 1 1 1 0 -1 -1 -1 -2 -3 -4 -4 -4 -4 -4 -4 -4 -5
16 15 14 13 12 12 10 8 7 8 6 4 4 4 2 2 1 1 1 1 4 4 4 4 3 3 3 3 2 1 -1 -1 -2 -2 -4 -4 -5 -4 -4 -5 -5 -5 -6

GFSMW_925_temp_234.txt.gz
Temp
32 32 30 28 28 27 25 24 22 21 20 20 20 21 21 21 20 20 20 19 19 19 19 20 20 19 21 21 20 20 20 19 19 20 21 22 21 20 20 20 20 20 19
31 31 30 27 27 27 26 24 23 22 20 20 21 22 22 21 20 20 19 19 19 19 19 19 20 20 20 20 18 18 19 18 18 19 18 21 22 21 21 20 20 18 18
31 31 30 29 25 26 26 25 24 23 22 22 21 21 21 21 20 20 20 19 18 18 18 19 19 19 18 18 18 17 17 17 15 15 16 18 22 21 21 20 19 18 18
30 31 31 30 27 25 26 25 25 24 23 21 22 22 22 21 21 21 20 19 19 18 18 18 17 17 17 17 17 16 16 15 15 15 15 15 17 19 20 20 19 18 17
30 31 31 30 29 25 25 25 25 24 23 21 22 22 23 23 21 20 17 17 17 17 17 17 17 17 17 16 15 15 16 16 17 16 16 15 15 15 16 18 19 18 18
30 30 31 30 29 26 23 24 25 24 23 22 21 22 21 23 19 17 17 17 16 17 17 16 15 15 15 15 15 15 15 16 16 16 15 15 15 17 17 17 17 16 15
30 29 30 30 28 27 24 23 24 24 23 21 21 21 21 22 19 17 16 15 15 14 15 15 15 14 14 14 13 13 13 13 14 13 13 13 13 12 12 13 15 15 15
29 29 30 29 29 26 24 22 23 23 22 20 21 21 21 19 19 18 16 15 15 15 14 14 13 12 12 12 11 11 11 11 11 10 10 11 10 10 10 11 11 13 14
30 29 29 28 28 26 24 22 22 22 21 19 19 19 18 19 19 17 15 16 15 13 13 12 11 11 11 11 10 10 10 9 8 8 8 9 8 8 8 8 9 10 12
29 29 28 27 27 25 23 22 21 21 17 17 17 17 17 17 15 14 14 14 13 12 12 11 11 10 10 9 9 9 8 8 7 7 7 7 6 7 6 6 7 7 8
29 27 26 24 23 22 21 18 18 16 15 15 15 15 14 14 14 14 14 13 12 12 11 11 10 9 9 8 8 7 7 7 6 5 6 5 5 6 5 5 5 5 5
28 26 24 21 21 20 19 16 15 14 14 14 14 13 13 13 13 13 13 12 12 11 10 10 9 9 8 7 7 7 6 6 5 5 5 4 4 4 4 4 4 5 5
24 24 21 20 19 19 19 16 14 14 13 13 13 13 13 13 13 13 13 12 11 10 10 8 8 8 7 6 6 5 5 4 4 3 3 3 3 3 4 4 5 4 4
22 22 21 20 19 18 18 16 15 14 13 13 13 13 12 13 13 12 11 10 9 9 9 8 7 6 6 5 5 4 3 3 2 1 2 2 2 2 3 3 2 2 2
19 22 22 20 19 18 17 16 15 13 13 14 14 12 13 12 12 11 10 10 9 9 8 7 6 6 5 4 4 3 3 2 1 0 1 0 -0 2 1 0 1 1 1
19 18 20 20 19 18 17 16 13 14 14 14 12 12 12 12 11 10 9 9 8 8 7 7 6 5 4 3 2 2 2 2 1 -0 -1 -1 0 -1 -1 -1 -1 -2 -1
20 19 18 19 19 18 17 16 13 13 13 13 13 12 12 11 10 10 9 8 8 7 7 6 5 4 1 1 0 0 -0 -1 -0 -0 -0 -1 -1 -0 -0 -0 -1 -2 -2
24 21 20 18 18 18 17 16 14 13 13 13 13 12 12 11 10 10 9 7 7 6 5 4 4 2 0 0 -0 -0 -1 -0 -0 -2 -2 -2 -2 -2 -2 -2 -2 -2 -2
24 25 23 20 18 17 16 16 15 14 13 13 13 12 11 10 9 8 7 7 6 5 5 4 3 2 -0 -0 -1 1 -0 -1 -2 -2 -2 -1 -2 -2 -1 -3 -2 -1 -2
24 24 24 21 18 17 16 15 15 14 14 13 12 11 10 9 8 7 7 6 5 5 5 3 3 3 1 0 0 1 0 0 -1 -1 -1 -2 -2 -1 -1 -2 -1 0 -1
24 24 23 23 19 17 16 16 15 15 14 12 11 10 8 7 7 6 6 5 5 4 4 3 3 3 3 1 0 0 1 1 0 -0 -1 -2 -2 -2 -2 -2 -1 -1 -2
22 23 22 22 20 17 16 16 16 14 13 11 9 8 7 7 5 5 5 5 4 3 3 4 3 3 2 1 0 -0 1 0 0 -1 -1 -2 -2 -2 -2 -2 -2 -2 -2
21 22 23 21 19 17 16 17 16 15 12 10 9 8 7 5 6 5 5 5 4 3 3 3 2 2 2 1 0 -0 -0 -1 -1 -2 -1 -2 -2 -2 -3 -3 -2 -2 -2
20 21 21 21 19 17 15 16 16 14 11 9 7 5 6 5 5 5 4 3 3 2 2 1 1 1 0 0 -0 -1 -1 -1 -2 -2 -3 -2 -3 -3 -4 -3 -3 -3 -3
20 20 21 19 19 16 15 16 15 11 11 9 7 6 5 5 4 5 4 3 2 3 2 1 1 1 0 0 1 0 -1 -1 -2 -3 -3 -4 -4 -4 -4 -4 -4 -4 -4
18 20 20 20 18 15 15 16 13 11 10 9 7 6 4 4 4 3 2 2 2 2 2 2 2 1 3 3 2 1 0 -1 -2 -3 -3 -3 -3 -3 -3 -3 -4 -4 -5

GFSMW_925_temp_237.txt.gz
Temp
35 35 34 33 32 31 29 27 25 23 21 21 22 23 23 22 22 23 23 22 21 21 20 21 21 21 22 21 21 22 22 21 20 21 22 23 22 22 22 21 21 21 20
35 35 34 33 31 31 29 28 26 25 23 23 23 24 24 23 23 23 22 22 20 20 20 20 22 21 22 22 22 20 20 20 19 21 21 23 23 23 22 21 22 20 20
34 34 34 33 31 30 30 28 27 26 24 24 24 24 24 24 23 23 22 21 20 20 20 20 21 21 20 20 20 20 20 20 18 18 20 21 23 23 23 22 21 19 20
34 34 34 33 31 28 29 28 28 26 25 23 25 25 25 25 24 23 22 21 20 20 20 20 20 20 20 19 19 18 18 17 17 16 17 17 19 21 22 23 21 20 19
33 33 34 34 32 29 27 28 28 27 26 24 25 24 25 25 25 23 22 22 20 20 20 20 19 18 17 17 17 17 16 16 16 17 17 17 18 18 19 20 20 20 19
35 34 34 34 33 31 26 27 28 28 27 25 23 25 24 25 25 24 22 21 20 19 19 18 17 17 17 16 16 16 16 17 18 19 18 18 19 19 19 19 18 18 17
34 34 33 33 33 33 27 26 27 28 27 25 23 24 24 25 25 23 19 17 17 17 17 17 17 16 16 16 16 16 16 16 17 17 16 16 16 15 15 15 16 16 16
34 33 33 33 32 32 27 25 27 27 27 26 24 23 23 24 25 21 17 16 16 16 16 16 15 15 15 16 15 15 15 14 14 14 14 14 13 13 13 13 13 14 14
32 33 33 32 32 32 30 26 26 27 27 26 24 23 23 23 22 18 16 15 16 15 15 15 15 15 14 14 14 13 13 12 12 11 11 12 11 10 10 10 10 12 13
31 31 32 32 31 31 30 26 25 26 27 25 23 23 23 22 20 17 16 16 15 15 14 14 14 14 13 13 13 12 11 11 11 10 10 10 10 9 9 9 9 10 10
30 31 31 31 30 29 30 27 25 25 26 24 22 21 21 20 17 16 16 15 14 14 14 14 13 13 12 12 12 12 11 10 10 9 9 9 9 9 9 8 8 8 8
31 31 30 28 27 28 27 26 25 24 22 19 19 19 18 17 15 16 15 15 14 14 14 13 13 12 12 11 11 10 10 9 9 9 8 8 8 7 7 8 7 8 7
29 29 28 25 24 24 24 22 20 17 16 16 16 16 15 15 15 15 15 14 14 14 13 13 12 12 11 10 10 9 9 9 8 8 7 7 7 7 7 7 7 7 7
26 26 25 24 24 23 23 18 16 15 15 14 14 14 14 14 14 14 14 14 13 13 12 12 11 11 10 9 9 8 8 7 6 6 6 6 6 6 6 6 5 5 5
24 25 25 23 23 22 22 18 15 14 14 14 13 13 13 13 14 14 14 13 13 12 11 11 10 9 9 9 8 7 7 6 4 4 4 3 3 4 4 4 4 3 3
24 23 24 24 23 22 21 20 16 14 14 13 13 13 13 13 13 13 13 12 11 11 10 10 9 8 8 7 6 6 5 5 4 4 3 2 2 2 2 3 1 1 1
26 23 22 23 24 23 21 20 17 14 14 14 13 13 13 13 13 12 12 11 11 10 10 9 8 7 4 5 5 5 4 3 1 1 0 -1 1 1 1 0 0 -0 -1
25 26 24 22 22 22 22 20 18 15 14 13 13 12 13 12 12 12 12 11 10 10 9 8 7 4 2 3 3 3 2 1 -0 -0 -1 -0 -0 -1 -1 -1 -1 -1 -1
25 25 25 24 21 21 21 21 17 15 14 13 13 13 12 12 12 12 11 11 9 8 7 6 4 2 2 2 2 2 1 1 1 0 0 1 0 1 1 -1 -0 -0 -0
25 25 25 24 25 21 20 20 18 15 14 13 13 12 13 12 12 12 10 9 8 7 6 4 3 2 1 1 2 3 3 2 1 1 0 0 0 -0 0 -0 1 2 2
23 24 24 25 25 21 20 19 18 16 14 13 13 13 12 12 12 10 9 7 7 6 5 4 3 2 1 1 2 3 3 2 1 1 1 -1 -1 -0 -0 -1 1 1 -1
22 23 23 24 25 22 19 19 19 16 15 14 13 13 12 11 10 8 8 7 6 5 4 4 4 4 2 1 1 2 2 1 1 1 0 -0 -0 -0 -1 -1 -1 -1 -1
22 23 23 24 24 24 20 20 19 18 15 14 13 12 11 9 8 8 6 6 5 5 5 4 4 4 3 1 1 1 1 1 1 -0 -1 -1 -1 -2 -2 -2 -2 -1 -1
20 21 22 23 23 24 23 20 19 18 16 14 12 10 8 8 7 7 6 6 5 5 4 4 3 3 2 1 1 1 0 0 -0 -1 -1 -2 -2 -2 -3 -3 -2 -2 -1
19 20 21 21 22 22 22 20 19 18 15 13 11 9 7 7 7 6 6 5 5 5 4 3 2 2 1 1 2 2 -0 -1 -1 -2 -3 -4 -4 -3 -3 -3 -3 -3 -3
19 19 20 20 21 21 22 20 18 18 15 12 11 9 7 7 7 5 4 4 4 4 3 2 2 1 1 1 2 2 -0 -1 -1 -3 -3 -3 -3 -3 -3 -2 -3 -4 -4

GFSMW_925_temp_240.txt.gz
Temp
34 35 34 34 33 31 28 26 25 24 23 22 22 23 23 21 22 20 20 20 20 20 21 21 22 22 22 22 22 22 21 22 21 21 22 22 22 22 22 21 21 20 20
34 34 34 33 33 31 28 26 25 24 23 22 22 23 22 22 21 22 21 21 20 20 21 21 21 22 21 22 22 21 21 21 20 20 20 18 21 22 21 21 21 20 20
34 34 33 32 32 31 29 26 25 23 23 22 22 22 23 23 22 22 22 22 21 21 21 20 21 21 21 21 21 21 21 21 19 19 19 18 18 20 21 21 21 20 19
34 34 33 32 31 31 30 28 26 24 23 22 22 22 23 23 23 23 23 22 21 20 20 20 21 21 21 21 20 21 20 20 18 18 18 18 18 18 17 21 21 20 19
33 33 33 33 32 31 30 29 27 26 24 23 23 23 24 24 24 23 23 22 21 20 20 20 20 21 20 20 19 19 19 19 17 17 17 17 18 18 17 15 18 19 18
33 33 33 33 33 30 29 29 28 27 25 23 24 24 24 24 24 23 22 21 20 20 20 20 20 20 19 18 18 18 18 18 18 18 18 18 17 17 17 15 16 16 17
32 32 32 33 33 32 27 27 28 28 26 24 23 24 24 24 25 23 22 21 20 20 20 20 19 19 18 18 17 17 17 17 17 18 18 17 17 16 15 15 15 14 15
32 33 33 32 32 32 27 26 27 28 27 25 23 23 24 24 24 23 22 21 19 18 18 19 19 19 18 17 17 17 17 17 17 16 16 15 14 14 13 14 13 11 13
32 32 32 31 31 31 31 26 26 27 27 26 24 23 24 24 24 23 22 18 17 17 18 19 18 17 16 16 16 16 15 15 14 14 14 13 12 12 11 11 11 12 10
30 31 31 30 31 31 31 26 26 27 27 27 25 23 23 24 24 22 18 17 16 17 17 17 16 15 15 15 15 14 13 13 12 12 12 11 11 10 10 10 10 10 10
29 30 30 29 30 31 30 25 25 26 26 27 26 24 23 23 22 20 17 17 16 16 16 15 15 15 14 14 13 13 12 12 11 11 11 10 10 9 9 9 9 9 8
29 29 29 29 29 29 29 25 25 25 26 26 25 24 23 22 19 17 16 16 16 15 15 14 14 14 13 13 12 12 11 11 10 10 9 9 9 9 8 8 8 8 8
28 29 27 26 26 27 28 26 25 25 25 26 25 22 20 18 17 16 16 15 15 14 14 14 13 13 12 12 12 11 10 10 9 9 8 8 8 8 7 8 8 7 7
27 28 25 24 24 25 25 25 22 22 20 20 18 17 17 17 16 15 15 14 14 14 13 13 12 12 11 11 11 10 10 9 8 8 8 7 7 7 7 7 6 5 5
25 26 25 24 24 23 23 20 17 17 17 17 16 16 15 15 15 14 14 14 14 13 13 12 11 11 11 10 10 9 8 8 7 7 6 6 6 6 6 5 4 4 4
25 24 25 24 23 23 23 18 16 16 15 15 15 14 14 14 14 13 13 13 12 12 12 11 10 10 10 9 9 8 7 6 5 5 4 5 5 5 5 4 4 3 2
23 24 23 24 23 22 22 19 15 15 14 14 13 13 13 13 13 13 13 12 12 11 11 10 9 9 9 9 8 7 6 5 4 4 4 2 2 3 3 2 2 2 2
23 24 23 22 23 23 22 21 16 14 13 13 13 13 13 12 12 12 12 11 11 10 10 9 8 8 8 8 7 6 5 4 4 3 3 3 2 2 1 0 0 0 -1
23 23 24 22 22 23 22 21 16 14 14 13 12 12 12 12 12 11 11 11 10 9 9 8 7 7 5 6 5 5 4 3 2 2 2 1 1 1 0 1 0 0 -0
22 24 24 25 22 21 22 21 18 15 14 13 12 12 12 11 11 11 11 10 10 9 7 5 6 6 4 5 4 4 3 1 1 1 1 0 2 1 1 2 1 1 1
23 23 23 24 25 22 21 20 18 16 14 13 12 12 11 11 11 10 10 10 8 7 5 4 4 3 3 3 3 2 3 2 1 1 1 1 0 1 1 1 1 1 1
22 23 22 23 23 23 21 20 19 17 14 13 12 11 11 10 10 10 9 8 7 5 4 3 1 1 2 2 3 3 3 2 2 1 1 1 -0 1 1 -0 -0 0 0
20 21 22 22 23 23 23 20 20 17 14 13 12 12 11 10 10 9 7 6 6 4 3 2 2 -0 0 2 3 3 2 2 2 1 1 0 -0 1 -0 -1 -0 -0 -0
19 19 21 21 20 21 22 20 20 18 14 13 12 12 11 10 8 7 7 6 5 4 3 3 2 1 -0 1 2 1 1 1 1 -0 -0 -1 -1 -1 -1 -1 -1 -1 -1
18 19 18 19 19 20 21 21 20 18 15 14 12 11 10 9 7 7 6 6 5 5 4 4 3 1 -0 0 1 1 1 1 0 -1 -2 -2 -2 -3 -2 -2 -2 -2 -2
18 18 18 18 19 19 20 20 20 19 15 14 12 10 8 8 7 6 6 5 5 5 5 4 4 2 3 2 1 1 1 1 1 -1 -2 -3 -3 -3 -3 -3 -3 -4 -4

GFSMW_925_temp_246.txt.gz
Temp
26 27 28 27 26 24 23 22 21 20 20 20 20 19 19 20 19 20 21 21 21 21 21 21 21 22 22 22 22 22 22 22 22 21 20 20 21 21 21 21 20 20 20
25 24 27 27 26 25 24 23 22 20 21 21 20 20 20 19 19 19 20 21 21 22 21 21 21 22 22 22 22 22 22 21 21 20 18 16 18 20 20 20 19 18 18
27 27 24 26 27 26 24 23 22 21 21 21 21 21 20 20 19 19 20 21 22 22 22 21 21 21 22 22 22 22 21 20 20 20 20 15 16 17 17 17 18 18 17
28 29 27 24 26 26 25 24 23 21 21 21 21 21 21 20 20 19 19 20 21 21 21 21 21 21 21 21 22 21 21 21 20 19 20 20 19 15 15 16 16 16 16
27 29 28 26 25 26 25 24 23 22 22 21 21 21 21 21 21 21 20 19 20 21 21 21 21 21 21 21 21 21 21 20 20 20 17 18 18 18 15 13 13 14 13
26 27 28 29 25 26 26 24 23 23 22 21 21 21 22 21 21 20 20 19 19 21 21 21 20 20 20 21 21 21 21 20 20 20 20 19 17 16 15 13 12 12 10
26 26 26 26 26 25 26 24 23 23 22 21 21 21 21 21 21 20 20 18 18 18 20 20 20 19 20 20 21 21 21 20 20 20 19 19 19 19 17 15 11 11 11
27 25 25 25 25 24 25 24 23 23 22 21 21 21 21 21 21 20 20 19 19 18 18 20 19 20 20 20 20 20 20 20 20 19 18 18 18 18 18 16 13 8 9
24 27 25 24 24 23 24 24 23 23 22 21 21 21 20 21 20 20 20 19 19 19 19 19 19 19 19 19 20 19 20 19 18 17 17 17 17 17 17 17 16 14 8
22 22 23 23 25 25 25 24 23 23 22 21 21 21 20 20 20 20 20 19 19 19 19 18 18 18 18 19 19 19 19 18 17 16 16 16 16 16 16 16 15 15 12
24 22 22 21 25 26 25 24 23 23 23 21 21 21 20 20 20 20 20 20 19 19 19 18 18 18 18 18 18 18 17 16 16 15 15 15 14 14 14 13 13 13 12
26 26 23 22 21 23 23 23 23 23 23 22 21 20 20 20 19 20 20 19 19 19 19 18 17 16 17 18 18 17 16 15 15 14 14 13 13 13 12 12 11 11 10
23 26 25 22 21 21 21 23 23 22 23 22 21 21 20 20 19 19 20 20 19 18 17 16 16 16 16 17 17 16 14 13 13 13 13 13 12 11 10 10 9 9 9
19 19 18 18 17 17 18 20 21 22 22 21 21 21 19 19 19 19 19 19 18 17 16 16 16 15 15 15 14 13 13 12 12 12 13 13 12 11 9 9 8 8 7
17 18 17 16 16 15 15 16 18 19 20 20 20 21 20 19 19 18 18 17 17 16 16 15 15 15 15 14 12 12 12 12 11 11 11 11 11 10 9 9 7 7 6
14 16 16 18 16 15 15 15 15 17 19 19 19 19 19 18 17 17 16 16 16 16 15 15 14 12 12 11 13 14 13 11 11 10 9 9 9 8 8 8 7 8 7
13 14 15 16 16 16 16 15 16 17 17 15 16 17 17 17 16 16 16 15 15 14 14 13 12 11 11 11 13 13 10 10 10 10 8 8 7 7 7 6 6 6 6
12 12 15 16 16 16 16 15 16 16 16 15 16 16 16 16 16 15 15 14 14 13 12 11 11 10 10 10 12 12 11 10 9 9 8 7 6 6 6 6 5 4 3
10 12 12 15 17 17 15 17 15 15 15 14 14 15 15 15 15 14 14 13 12 12 11 10 10 9 8 9 10 8 6 7 7 7 7 7 6 5 6 6 4 2 1
10 10 11 13 17 18 16 14 14 14 13 13 14 14 14 14 13 13 13 12 11 10 10 9 8 8 8 8 9 10 7 5 5 5 5 6 6 5 6 6 3 1 -0
11 10 11 12 13 18 16 14 14 13 14 14 13 14 14 13 13 12 11 10 9 8 7 7 6 7 8 7 9 10 7 5 3 3 3 4 5 5 5 5 4 4 1
16 14 13 12 14 16 17 15 13 15 15 14 13 13 13 12 12 11 9 8 7 6 5 5 4 4 5 6 7 8 9 6 5 3 4 4 3 4 3 3 3 2 1
15 16 15 16 17 17 17 16 16 16 14 13 12 11 12 12 11 10 8 7 7 5 4 4 3 2 2 4 6 7 6 5 3 3 4 4 3 2 1 2 1 1 0
14 15 16 15 15 17 16 17 17 16 13 11 11 11 11 10 10 9 8 6 5 4 3 3 2 1 1 2 3 4 4 3 3 3 2 1 0 -0 0 0 1 1 0
14 14 14 14 15 16 17 17 17 16 13 11 10 10 10 10 9 9 8 7 6 6 4 4 3 2 1 1 1 2 1 1 2 1 0 -1 -1 -1 -1 -1 -0 -0 0
13 13 13 13 15 15 16 17 16 16 14 10 9 9 9 9 8 8 7 6 6 5 5 4 3 2 2 1 1 2 1 2 2 -0 -3 -3 -3 -3 -2 -2 -2 -1 -0